Date String (YYYY-MM-DD hh:mm:ss) UTC,Instrument flags,Ambient pressure (hPa),Sample flow (lpm),Bypass flow (lpm),Sample temperature (°C),Ambient temperature (°C),ASC tube jacket temperature (°C),LED temperature (°C),Box temperature (°C),Sample RH (%),Span deviation,Mass concentration (μg/m³),Mass concentration (μg/m³),Mass concentration (μg/m³)
DateTimeUTC,F1_M11,P_M11,Q1_M11,Q2_M11,T1_M11,T2_M11,T3_M11,T4_M11,T5_M11,U1_M11,ZSPAN_M11,X0_M11,X2_M11,X1_M11
2022-12-18 04:00:00,,0822.3,5.02,0.00,21.6,19.8,00.0,30.7,23.2,05.3,0000.0,0013.16,0004.10,0003.16
2022-12-18 04:01:00,,0822.3,4.97,0.00,21.5,19.5,00.0,30.7,23.1,05.3,0000.0,0014.82,0004.16,0003.18
2022-12-18 04:02:00,,0822.3,4.98,0.00,21.5,19.3,00.0,30.6,22.9,05.4,0000.0,0015.01,0004.26,0003.20
2022-12-18 04:03:00,,0822.4,5.03,0.00,21.4,19.1,00.0,30.6,22.8,05.4,0000.0,0013.72,0004.29,0003.23
2022-12-18 04:04:00,,0822.3,5.03,0.00,21.4,20.0,00.0,30.5,23.1,05.4,0000.0,0013.49,0004.26,0003.23
2022-12-18 04:05:00,,0822.2,4.97,0.00,21.5,21.2,00.0,30.5,23.4,05.3,0000.0,0014.38,0004.23,0003.23
2022-12-18 04:06:00,,0822.2,5.04,0.00,21.6,21.4,00.0,30.5,23.5,05.3,0000.0,0014.35,0004.17,0003.23
2022-12-18 04:07:00,,0822.1,4.95,0.00,21.6,21.0,00.0,30.5,23.5,05.3,0000.0,0013.43,0004.05,0003.22
2022-12-18 04:08:00,,0822.1,5.04,0.00,21.6,20.7,00.0,30.5,23.4,05.3,0000.0,0013.95,0004.03,0003.24
2022-12-18 04:09:00,,0822.2,4.96,0.00,21.6,20.5,00.0,30.5,23.3,05.2,0000.0,0014.56,0004.04,0003.25
2022-12-18 04:10:00,,0822.2,5.02,0.00,21.6,20.3,00.0,30.5,23.3,05.2,0000.0,0015.32,0004.04,0003.24
2022-12-18 04:11:00,,0822.2,5.03,0.00,21.6,20.2,00.0,30.5,23.3,05.2,0000.0,0014.50,0004.00,0003.23
2022-12-18 04:12:00,,0822.1,4.96,0.00,21.6,20.2,00.0,30.5,23.3,05.2,0000.0,0014.28,0004.00,0003.22
2022-12-18 04:13:00,,0822.2,5.02,0.00,21.6,20.0,00.0,30.5,23.2,05.3,0000.0,0015.15,0003.94,0003.21
2022-12-18 04:14:00,,0822.2,5.01,0.00,21.5,19.7,00.0,30.5,23.1,05.3,0000.0,0015.81,0003.95,0003.19
2022-12-18 04:15:00,,0822.1,4.96,0.00,21.4,19.4,00.0,30.5,23.0,05.3,0000.0,0016.73,0004.00,0003.19
2022-12-18 04:16:00,,0822.1,5.02,0.00,21.4,19.9,00.0,30.4,23.0,05.3,0000.0,0016.09,0004.05,0003.21
2022-12-18 04:17:00,,0822.1,5.02,0.00,21.5,21.1,00.0,30.4,23.3,05.3,0000.0,0016.23,0004.11,0003.24
2022-12-18 04:18:00,,0822.1,4.98,0.00,21.6,21.6,00.0,30.4,23.5,05.3,0000.0,0016.88,0004.18,0003.30
2022-12-18 04:19:00,,0822.1,4.98,0.00,21.7,21.2,00.0,30.5,23.5,05.3,0000.0,0016.27,0004.23,0003.33
2022-12-18 04:20:00,,0822.1,5.03,0.00,21.6,20.8,00.0,30.5,23.4,05.3,0000.0,0015.89,0004.25,0003.35
2022-12-18 04:21:00,,0822.1,5.01,0.00,21.6,20.5,00.0,30.5,23.3,05.2,0000.0,0015.34,0004.29,0003.36
2022-12-18 04:22:00,,0822.1,4.96,0.00,21.6,20.2,00.0,30.5,23.3,05.3,0000.0,0015.00,0004.38,0003.42
2022-12-18 04:23:00,,0822.1,5.02,0.00,21.5,20.0,00.0,30.5,23.2,05.3,0000.0,0014.65,0004.52,0003.51
2022-12-18 04:24:00,,0822.2,5.02,0.00,21.5,19.7,00.0,30.5,23.1,05.3,0000.0,0013.21,0004.63,0003.63
2022-12-18 04:25:00,,0822.2,4.97,0.00,21.5,19.6,00.0,30.5,23.1,05.3,0000.0,0012.43,0004.68,0003.71
2022-12-18 04:26:00,,0822.1,5.00,0.00,21.4,19.4,00.0,30.4,23.0,05.3,0000.0,0012.28,0004.77,0003.80
2022-12-18 04:27:00,,0822.1,5.01,0.00,21.4,19.7,00.0,30.4,23.1,05.4,0000.0,0012.26,0004.85,0003.87
2022-12-18 04:28:00,,0822.1,4.96,0.00,21.5,20.9,00.0,30.3,23.3,05.4,0000.0,0012.27,0004.95,0003.95
2022-12-18 04:29:00,,0822.1,5.03,0.00,21.6,21.7,00.0,30.4,23.6,05.4,0000.0,0011.37,0005.04,0004.04
2022-12-18 04:30:00,,0822.1,4.96,0.00,21.7,21.4,00.0,30.4,23.6,05.4,0000.0,0011.23,0005.21,0004.16
2022-12-18 04:31:00,,0822.1,5.03,0.00,21.6,20.9,00.0,30.4,23.5,05.4,0000.0,0011.62,0005.36,0004.32
2022-12-18 04:32:00,,0822.1,4.95,0.00,21.6,20.6,00.0,30.5,23.4,05.4,0000.1,0012.43,0005.50,0004.49
2022-12-18 04:33:00,,0822.0,5.03,0.00,21.6,20.3,00.0,30.5,23.3,05.4,0001.0,0013.71,0005.69,0004.66
2022-12-18 04:34:00,,0822.0,5.03,0.00,21.5,20.0,00.0,30.5,23.2,05.5,0001.3,0014.74,0005.85,0004.80
2022-12-18 04:35:00,,0822.0,4.95,0.00,21.5,19.9,00.0,30.4,23.2,05.5,0001.3,0015.06,0005.95,0004.89
2022-12-18 04:36:00,,0821.9,5.03,0.00,21.5,19.7,00.0,30.4,23.1,05.5,0001.4,0015.29,0006.12,0005.02
2022-12-18 04:37:00,,0822.0,5.02,0.00,21.4,19.6,00.0,30.4,23.1,05.6,0001.5,0015.09,0006.30,0005.18
2022-12-18 04:38:00,,0821.9,4.96,0.00,21.4,19.7,00.0,30.4,23.1,05.6,0001.4,0015.00,0006.48,0005.35
2022-12-18 04:39:00,,0822.0,5.01,0.00,21.5,20.8,00.0,30.3,23.3,05.6,0001.9,0015.32,0006.65,0005.52
2022-12-18 04:40:00,,0822.2,4.98,0.00,21.6,21.7,00.0,30.4,23.5,05.6,0002.3,0015.94,0006.82,0005.66
2022-12-18 04:41:00,,0822.1,5.02,0.00,21.7,21.5,00.0,30.4,23.5,05.5,0002.2,0015.67,0006.90,0005.74
2022-12-18 04:42:00,,0821.9,4.98,0.00,21.6,21.0,00.0,30.4,23.4,05.5,0002.4,0015.51,0006.99,0005.81
2022-12-18 04:43:00,,0822.2,5.01,0.00,21.6,20.6,00.0,30.5,23.3,05.6,0002.5,0015.07,0007.13,0005.91
2022-12-18 04:44:00,,0822.2,5.02,0.00,21.6,20.3,00.0,30.5,23.3,05.6,0002.4,0014.30,0007.27,0006.01
2022-12-18 04:45:00,,0822.0,4.96,0.00,21.6,20.2,00.0,30.5,23.3,05.6,0002.1,0013.96,0007.38,0006.13
2022-12-18 04:46:00,,0822.0,5.01,0.00,21.6,20.1,00.0,30.5,23.3,05.6,0002.3,0013.83,0007.50,0006.24
2022-12-18 04:47:00,,0821.9,5.01,0.00,21.5,20.0,00.0,30.5,23.2,05.6,0002.4,0014.10,0007.62,0006.35
2022-12-18 04:48:00,,0822.0,4.96,0.00,21.5,20.0,00.0,30.4,23.2,05.6,0002.3,0013.89,0007.62,0006.40
2022-12-18 04:49:00,,0821.8,4.99,0.00,21.5,19.9,00.0,30.4,23.2,05.6,0002.3,0013.90,0007.65,0006.45
2022-12-18 04:50:00,,0821.8,5.02,0.00,21.5,19.9,00.0,30.4,23.2,05.6,0002.3,0013.87,0007.65,0006.48
2022-12-18 04:51:00,,0821.8,4.98,0.00,21.5,20.1,00.0,30.4,23.2,05.6,0002.3,0013.76,0007.72,0006.50
2022-12-18 04:52:00,,0821.7,5.01,0.00,21.6,21.2,00.0,30.4,23.4,05.6,0002.1,0013.75,0007.76,0006.55
2022-12-18 04:53:00,,0821.8,4.97,0.00,21.7,21.9,00.0,30.4,23.7,05.6,0002.1,0013.80,0007.76,0006.58
2022-12-18 04:54:00,,0821.8,5.03,0.00,21.7,21.5,00.0,30.4,23.6,05.6,0002.6,0013.76,0007.76,0006.61
2022-12-18 04:55:00,,0821.8,4.96,0.00,21.7,20.8,00.0,30.5,23.5,05.6,0002.5,0013.52,0007.74,0006.63
2022-12-18 04:56:00,,0821.9,5.03,0.00,21.6,20.3,00.0,30.5,23.3,05.7,0002.9,0013.57,0007.72,0006.63
2022-12-18 04:57:00,,0822.0,5.02,0.00,21.6,20.0,00.0,30.5,23.2,05.7,0002.7,0013.73,0007.77,0006.66
2022-12-18 04:58:00,,0821.9,4.96,0.00,21.5,19.8,00.0,30.5,23.1,05.7,0002.4,0013.69,0007.77,0006.69
2022-12-18 04:59:00,,0822.1,4.98,0.00,21.5,19.7,00.0,30.4,23.1,05.7,0002.4,0013.89,0007.82,0006.71
